• In Netherlands
  • List of Countries
  • For 7 days
  • Water Temperature
  • Satellite Maps
  • Weather Map
  • Weather Widgets
  • user-avatar
    Login

    Hourly Weather Namibe

    Today, 25 May, Thursday

    Time Temperature Precipitation Wind Pressure Humidity
    00:00 +27°C° 0 mm 2 mps 759 mmHg 41%
    01:00 +27°C° 0 mm 2 mps 759 mmHg 40%
    02:00 +27°C° 0 mm 2 mps 759 mmHg 38%
    03:00 +27°C° 0 mm 2 mps 758 mmHg 36%
    04:00 +27°C° 0 mm 2 mps 758 mmHg 33%
    05:00 +27°C° 0 mm 2 mps 758 mmHg 32%
    06:00 +27°C° 0 mm 3 mps 759 mmHg 30%
    07:00 +27°C° 0 mm 3 mps 759 mmHg 28%
    08:00 +30°C° 0 mm 3 mps 759 mmHg 24%
    09:00 +34°C° 0 mm 3 mps 759 mmHg 20%
    10:00 +36°C° 0 mm 4 mps 759 mmHg 15%
    11:00 +38°C° 0 mm 4 mps 759 mmHg 15%
    12:00 +40°C° 0 mm 5 mps 758 mmHg 14%
    13:00 +41°C° 0 mm 5 mps 757 mmHg 14%
    14:00 +40°C° 0 mm 6 mps 757 mmHg 17%
    15:00 +39°C° 0 mm 7 mps 756 mmHg 20%
    16:00 +38°C° 0 mm 7 mps 756 mmHg 22%
    17:00 +35°C° 0 mm 7 mps 756 mmHg 29%
    18:00 +32°C° 0 mm 6 mps 757 mmHg 35%
    19:00 +29°C° 0 mm 5 mps 757 mmHg 41%
    20:00 +29°C° 0 mm 5 mps 757 mmHg 42%
    21:00 +28°C° 0 mm 4 mps 758 mmHg 42%
    22:00 +28°C° 0 mm 3 mps 758 mmHg 43%
    23:00 +27°C° 0 mm 3 mps 758 mmHg 42%

    Tomorrow, 26 May, Friday

    Time Temperature Precipitation Wind Pressure Humidity
    00:00 +27°C° 0 mm 3 mps 758 mmHg 42%
    01:00 +27°C° 0 mm 3 mps 758 mmHg 41%
    02:00 +26°C° 0 mm 3 mps 758 mmHg 41%
    03:00 +26°C° 0 mm 3 mps 758 mmHg 41%
    04:00 +26°C° 0 mm 3 mps 757 mmHg 41%
    05:00 +26°C° 0 mm 3 mps 758 mmHg 41%
    06:00 +26°C° 0 mm 3 mps 758 mmHg 40%
    07:00 +26°C° 0 mm 2 mps 758 mmHg 40%
    08:00 +29°C° 0 mm 2 mps 758 mmHg 34%
    09:00 +32°C° 0 mm 2 mps 759 mmHg 27%
    10:00 +35°C° 0 mm 2 mps 759 mmHg 21%
    11:00 +37°C° 0 mm 3 mps 758 mmHg 21%
    12:00 +38°C° 0 mm 4 mps 758 mmHg 21%
    13:00 +40°C° 0 mm 5 mps 757 mmHg 21%
    14:00 +39°C° 0 mm 5 mps 757 mmHg 27%
    15:00 +36°C° 0 mm 5 mps 756 mmHg 32%
    16:00 +35°C° 0 mm 6 mps 756 mmHg 38%
    17:00 +33°C° 0 mm 5 mps 757 mmHg 43%
    18:00 +30°C° 0 mm 4 mps 757 mmHg 48%
    19:00 +29°C° 0 mm 3 mps 758 mmHg 53%
    20:00 +28°C° 0 mm 2 mps 758 mmHg 54%
    21:00 +28°C° 0 mm 2 mps 759 mmHg 54%
    22:00 +28°C° 0 mm 1 mps 759 mmHg 54%
    23:00 +27°C° 0 mm 1 mps 759 mmHg 54%

    Day after tomorrow, 27 May, Saturday

    Time Temperature Precipitation Wind Pressure Humidity
    00:00 +27°C° 0 mm 2 mps 759 mmHg 54%
    01:00 +27°C° 0 mm 2 mps 759 mmHg 54%
    02:00 +26°C° 0 mm 2 mps 758 mmHg 55%
    03:00 +26°C° 0 mm 1 mps 758 mmHg 56%
    04:00 +26°C° 0 mm 1 mps 758 mmHg 57%
    05:00 +26°C° 0 mm 1 mps 758 mmHg 58%
    06:00 +26°C° 0 mm 1 mps 759 mmHg 58%
    07:00 +26°C° 0 mm 1 mps 759 mmHg 58%
    08:00 +29°C° 0 mm 1 mps 759 mmHg 49%
    09:00 +31°C° 0 mm 1 mps 760 mmHg 40%
    10:00 +34°C° 0 mm 1 mps 760 mmHg 30%
    11:00 +37°C° 0 mm 2 mps 759 mmHg 27%
    12:00 +38°C° 0 mm 3 mps 759 mmHg 24%
    13:00 +41°C° 0 mm 4 mps 758 mmHg 22%
    14:00 +40°C° 0 mm 4 mps 758 mmHg 26%
    15:00 +37°C° 0 mm 5 mps 757 mmHg 31%
    16:00 +36°C° 0 mm 5 mps 757 mmHg 36%
    17:00 +34°C° 0 mm 5 mps 757 mmHg 43%
    18:00 +32°C° 0 mm 4 mps 758 mmHg 50%
    19:00 +29°C° 0 mm 3 mps 758 mmHg 58%
    20:00 +29°C° 0 mm 3 mps 759 mmHg 59%
    21:00 +28°C° 0 mm 2 mps 759 mmHg 59%
    22:00 +28°C° 0 mm 1 mps 760 mmHg 60%
    23:00 +28°C° 0 mm 1 mps 760 mmHg 60%

    28 May, Sunday

    Time Temperature Precipitation Wind Pressure Humidity
    00:00 +28°C° 0 mm 1 mps 759 mmHg 60%
    01:00 +27°C° 0 mm 2 mps 759 mmHg 60%
    02:00 +27°C° 0 mm 1 mps 759 mmHg 61%
    03:00 +26°C° 0 mm 1 mps 759 mmHg 62%
    04:00 +26°C° 0 mm 1 mps 759 mmHg 63%
    05:00 +26°C° 0 mm 1 mps 759 mmHg 63%
    06:00 +26°C° 0 mm 1 mps 759 mmHg 63%
    07:00 +26°C° 0 mm 1 mps 760 mmHg 62%
    08:00 +29°C° 0 mm 1 mps 760 mmHg 51%
    09:00 +32°C° 0 mm 1 mps 760 mmHg 40%
    10:00 +36°C° 0 mm 2 mps 760 mmHg 29%
    11:00 +37°C° 0 mm 2 mps 760 mmHg 26%
    12:00 +39°C° 0 mm 3 mps 759 mmHg 24%
    13:00 +41°C° 0 mm 4 mps 758 mmHg 21%
    14:00 +40°C° 0 mm 5 mps 758 mmHg 24%
    15:00 +40°C° 0 mm 5 mps 758 mmHg 26%
    16:00 +39°C° 0 mm 6 mps 757 mmHg 29%
    17:00 +36°C° 0 mm 5 mps 758 mmHg 34%
    18:00 +34°C° 0 mm 4 mps 758 mmHg 40%
    19:00 +31°C° 0 mm 3 mps 759 mmHg 45%
    20:00 +30°C° 0 mm 3 mps 759 mmHg 45%
    21:00 +30°C° 0 mm 3 mps 760 mmHg 45%
    22:00 +30°C° 0 mm 2 mps 760 mmHg 44%
    23:00 +29°C° 0 mm 2 mps 760 mmHg 42%

    29 May, Monday

    Time Temperature Precipitation Wind Pressure Humidity
    00:00 +29°C° 0 mm 2 mps 759 mmHg 40%
    01:00 +29°C° 0 mm 2 mps 759 mmHg 38%
    02:00 +29°C° 0 mm 2 mps 759 mmHg 37%
    03:00 +28°C° 0 mm 2 mps 759 mmHg 36%
    04:00 +28°C° 0 mm 3 mps 758 mmHg 35%
    05:00 +28°C° 0 mm 3 mps 759 mmHg 34%
    06:00 +28°C° 0 mm 3 mps 759 mmHg 33%
    07:00 +28°C° 0 mm 3 mps 759 mmHg 33%
    08:00 +32°C° 0 mm 4 mps 760 mmHg 28%
    09:00 +35°C° 0 mm 4 mps 760 mmHg 24%
    10:00 +38°C° 0 mm 4 mps 760 mmHg 19%
    11:00 +40°C° 0 mm 5 mps 759 mmHg 18%
    12:00 +41°C° 0 mm 5 mps 758 mmHg 17%
    13:00 +42°C° 0 mm 6 mps 758 mmHg 16%
    14:00 +41°C° 0 mm 7 mps 758 mmHg 17%
    15:00 +41°C° 0 mm 8 mps 757 mmHg 18%
    16:00 +40°C° 0 mm 8 mps 757 mmHg 20%
    17:00 +38°C° 0 mm 8 mps 758 mmHg 23%
    18:00 +35°C° 0 mm 8 mps 758 mmHg 26%
    19:00 +33°C° 0 mm 8 mps 759 mmHg 29%
    20:00 +32°C° 0 mm 7 mps 759 mmHg 29%
    21:00 +32°C° 0 mm 6 mps 759 mmHg 28%
    22:00 +30°C° 0 mm 5 mps 759 mmHg 28%
    23:00 +30°C° 0 mm 5 mps 759 mmHg 28%

    30 May, Tuesday

    Time Temperature Precipitation Wind Pressure Humidity
    00:00 +29°C° 0 mm 5 mps 759 mmHg 29%
    01:00 +29°C° 0 mm 4 mps 759 mmHg 29%
    02:00 +28°C° 0 mm 4 mps 758 mmHg 30%
    03:00 +28°C° 0 mm 4 mps 758 mmHg 31%
    04:00 +28°C° 0 mm 4 mps 758 mmHg 32%
    05:00 +28°C° 0 mm 4 mps 758 mmHg 32%
    06:00 +28°C° 0 mm 4 mps 759 mmHg 31%
    07:00 +28°C° 0 mm 4 mps 759 mmHg 31%
    08:00 +32°C° 0 mm 4 mps 759 mmHg 27%
    09:00 +34°C° 0 mm 4 mps 759 mmHg 23%
    10:00 +37°C° 0 mm 4 mps 760 mmHg 18%
    11:00 +39°C° 0 mm 5 mps 759 mmHg 17%
    12:00 +40°C° 0 mm 6 mps 758 mmHg 15%
    13:00 +43°C° 0 mm 7 mps 758 mmHg 13%
    14:00 +41°C° 0 mm 7 mps 757 mmHg 14%
    15:00 +40°C° 0 mm 8 mps 757 mmHg 15%
    16:00 +39°C° 0 mm 8 mps 757 mmHg 16%
    17:00 +37°C° 0 mm 8 mps 757 mmHg 21%
    18:00 +34°C° 0 mm 8 mps 758 mmHg 25%
    19:00 +31°C° 0 mm 8 mps 758 mmHg 30%
    20:00 +30°C° 0 mm 7 mps 759 mmHg 31%
    21:00 +29°C° 0 mm 6 mps 759 mmHg 31%
    22:00 +29°C° 0 mm 6 mps 759 mmHg 32%
    23:00 +28°C° 0 mm 5 mps 759 mmHg 32%
    Show more